This is the latest recevied weather packets stored in our database for station/object WC4PEM-14. If no packets are shown the sender has not sent any weather packets the latest 10 day(s).
| Time | Temp. | Humidity | Pressure | Rain* | Wind** | Luminosity | Snow |
|---|---|---|---|---|---|---|---|
| 1777927988 | 27.22° C | 53% | 1014 hPa | 0 mm | - | - | - |
| 1777927688 | 27.78° C | 51% | 1014 hPa | 0 mm | - | - | - |
| 1777927568 | 28.33° C | 50% | 1014 hPa | 0 mm | - | - | - |
| 1777927388 | 28.33° C | 50% | 1014 hPa | 0 mm | - | - | - |
| 1777927088 | 28.33° C | 50% | 1014.2 hPa | 0 mm | - | - | - |
| 1777926993 | 28.89° C | 50% | 1014.1 hPa | 0 mm | - | - | - |
| 1777926788 | 28.89° C | 50% | 1014.1 hPa | 0 mm | - | - | - |
| 1777926694 | 28.89° C | 48% | 1014.1 hPa | 0 mm | - | - | - |
| 1777926488 | 28.89° C | 48% | 1014.1 hPa | 0 mm | - | - | - |
| 1777926188 | 29.44° C | 47% | 1014.1 hPa | 0 mm | - | - | - |
| 1777925888 | 29.44° C | 48% | 1014.2 hPa | 0 mm | - | - | - |
| 1777925761 | 28.89° C | 49% | 1014.2 hPa | 0 mm | - | - | - |
| 1777925588 | 28.89° C | 49% | 1014.2 hPa | 0 mm | - | - | - |
| 1777925482 | 28.33° C | 49% | 1014.2 hPa | 0 mm | - | - | - |
| 1777925296 | 27.78° C | 50% | 1014.3 hPa | 0 mm | - | - | - |
| 1777925288 | 28.33° C | 49% | 1014.2 hPa | 0 mm | - | - | - |
| 1777924988 | 27.78° C | 50% | 1014.3 hPa | 0 mm | - | - | - |
| 1777924688 | 28.33° C | 48% | 1014.4 hPa | 0 mm | - | - | - |
| 1777924388 | 28.89° C | 48% | 1014.5 hPa | 0 mm | - | - | - |
| 1777924197 | 28.89° C | 47% | 1014.5 hPa | 0 mm | - | - | - |
| 1777924088 | 28.89° C | 47% | 1014.5 hPa | 0 mm | - | - | - |
| 1777923995 | 28.89° C | 47% | 1014.6 hPa | 0 mm | - | - | - |
| 1777923788 | 28.89° C | 47% | 1014.6 hPa | 0 mm | - | - | - |
| 1777923618 | 28.33° C | 47% | 1014.7 hPa | 0 mm | - | - | - |
| 1777923488 | 28.33° C | 47% | 1014.7 hPa | 0 mm | - | - | - |
* Rain latest hour (hover to see other rain measurements)
** Current wind speed in m/s (hover to see current wind gust speed)